Location: Nitra
(0.0000°N, 18.0833°E)
Time: 18:39:21
(UTC+02:00)

Vanguard 2 - Visible Passes

Search period start: 14 April 2024 00:00
Search period end: 24 April 2024 00:00
Orbit: 553 x 2917 km, 32.9° (Epoch: 14 April)

Date Brightness Start Highest point End Pass type
(mag) Time Alt. Az. Time Alt. Az. Time Alt. Az.
14 Apr 11.3 01:54:03 27° NE 01:54:03 27° NE 02:00:18 10° NE visible
14 Apr 10.9 03:55:11 32° NW 03:56:27 32° NNW 04:11:06 10° NNE visible
14 Apr 11.6 06:04:07 10° NW 06:12:47 15° NNW 06:20:37 10° NNE visible
15 Apr 11.2 02:07:32 30° NNE 02:07:32 30° NNE 02:15:03 10° NE visible
15 Apr 11.1 04:08:39 25° NW 04:12:17 26° NNW 04:25:39 10° NNE visible
15 Apr 11.7 06:21:52 10° NW 06:29:16 14° N 06:35:58 10° NNE visible
16 Apr 11.1 02:20:57 32° NNE 02:20:57 32° NNE 02:29:41 10° NE visible
16 Apr 11.3 04:22:04 18° NW 04:28:20 22° NNW 04:40:18 10° NNE visible
17 Apr 11.1 02:34:19 31° N 02:34:19 31° N 02:44:15 10° NE visible
17 Apr 11.5 04:35:26 12° NW 04:44:37 19° NNW 04:55:09 10° NNE visible
18 Apr 11.9 00:46:31 11° NE 00:46:31 11° NE 00:47:07 10° NE visible
18 Apr 11.2 02:47:37 29° N 02:47:37 29° N 02:58:48 10° NNE visible
18 Apr 11.6 04:51:27 10° NW 05:01:05 16° N 05:10:24 10° NNE visible
19 Apr 11.7 00:59:48 15° NE 00:59:48 15° NE 01:01:50 10° NE visible
19 Apr 11.2 03:00:54 25° NNW 03:00:54 25° NNW 03:13:23 10° NNE visible
19 Apr 11.7 05:08:40 10° NW 05:17:41 15° N 05:26:15 10° NNE visible
19 Apr 10.2 20:36:24 10° S 20:36:33 10° S 20:36:33 10° S visible
20 Apr 11.6 01:13:02 17° NNE 01:13:02 17° NNE 01:16:25 10° NE visible
20 Apr 11.3 03:14:08 20° NNW 03:16:17 21° NNW 03:28:08 10° NNE visible
20 Apr 11.8 05:25:14 10° NNW 05:34:18 16° N 05:42:44 10° NNE visible
20 Apr 10.1 20:50:01 10° SSW 20:50:43 13° S 20:50:43 13° S visible
21 Apr 11.5 01:26:14 19° NNE 01:26:14 19° NNE 01:30:55 10° NE visible
21 Apr 11.5 03:27:20 16° NNW 03:32:37 18° N 03:43:09 10° NNE visible
21 Apr 11.8 05:41:00 10° NNW 05:50:51 17° N 05:59:44 10° NE visible
21 Apr 10.1 21:04:01 10° SSW 21:04:58 15° SSW 21:04:58 15° SSW visible
22 Apr 11.5 01:39:24 20° NNE 01:39:24 20° NNE 01:45:25 10° NNE visible
22 Apr 11.6 03:40:30 11° NW 03:49:07 16° N 03:58:40 10° NNE visible
22 Apr 11.8 05:56:12 10° NNW 06:07:13 19° NNE 06:16:52 10° NE visible
22 Apr 10.1 21:18:18 10° SW 21:19:18 16° SW 21:19:18 16° SW visible
23 Apr 11.4 01:52:33 20° N 01:52:33 20° N 01:59:57 10° NNE visible
23 Apr 11.7 03:56:48 10° NNW 04:05:43 16° N 04:14:51 10° NNE visible
23 Apr 11.8 06:10:59 10° NNW 06:23:23 23° NNE 06:33:48 10° ENE visible
23 Apr 9.6 19:29:02 10° SSE 19:31:12 12° SE 19:32:32 11° SE visible
23 Apr 10.2 21:32:48 10° SW 21:33:45 16° SW 21:33:45 16° SW visible
